Regional Weather Roundup
Issued by NWS

Home | Current Version | Previous Version | Graphics & Text | Print | Product List | Glossary On
Versions: 1 2 3 4 5 6 7 8 9 10 11 12 13 14 15 16 17 18 19 20 21 22 23 24 25 26 27 28 29 30 31 32 33 34 35 36 37 38 39 40 41 42 43 44 45 46 47 48 49 50
000
ASUS43 KLSX 172107
RWRMO

WEATHER SUMMARY FOR MISSOURI
NATIONAL WEATHER SERVICE SPRINGFIELD MO
400 PM CDT WED SEP 17 2014

NOTE: "FAIR" INDICATES FEW OR NO CLOUDS BELOW 12,000 FEET WITH NO
       SIGNIFICANT WEATHER AND/OR OBSTRUCTIONS TO VISIBILITY.
       CURRENT SKY AND/OR WEATHER CONDITIONS ARE NOT AVAILABLE FOR
       CHILLICOTHE AND FARMINGTON.

MOZ001>031-035>038-043-044-053-054-172200-
...NORTHERN AND WESTERN MISSOURI...

CITY           SKY/WX    TMP DP  RH WIND       PRES   REMARKS
KANSAS CTY INT CLOUDY    73  67  81 E9        29.91F
KANSAS C DTWN  CLOUDY    74  66  76 E5        29.90S
LEE`S SUMMIT   CLOUDY    72  66  81 E5        29.92S
ST JOSEPH      PTSUNNY   78  65  63 SE5       29.89F
CHILLICOTHE      N/A     76  65  68 VRB3      29.92S
KIRKSVILLE     CLOUDY    71  62  73 E9        29.94F

$$
MOZ066>068-077>081-088>096-101>105-172200-
...SOUTHWEST MISSOURI...

CITY           SKY/WX    TMP DP  RH WIND       PRES   REMARKS
SPRINGFIELD    MOSUNNY   68  63  84 SE9       29.91F
JOPLIN         PTSUNNY   77  66  68 E16       29.87S

$$
MOZ032>034-039>042-045>050-055>058-069>072-172200-
...CENTRAL MISSOURI...

CITY           SKY/WX    TMP DP  RH WIND       PRES   REMARKS
COLUMBIA       CLOUDY    66  63  90 NE6       29.92F
JEFFERSON CITY CLOUDY    70  65  84 NE6       29.90F
ROLLA          FOG       66  62  87 CALM      29.90F VSB 1/4
SEDALIA        CLOUDY    73  67  81 N6        29.91F
WHITEMAN AFB   CLOUDY    71  68  89 NE5       29.90F
OSAGE BEACH    MOSUNNY   75  64  69 W5        29.89F

$$
MOZ051-052-059>065-172200-
...EAST CENTRAL MISSOURI...

CITY           SKY/WX    TMP DP  RH WIND       PRES   REMARKS
ST LOUIS INTL  CLOUDY    66  58  75 E9        29.95F
SPIRIT OF STL  CLOUDY    67  59  75 CALM      29.93F
ST CHARLES     CLOUDY    62  57  83 E8        29.95F

$$
MOZ072>076-082>087-097>100-106>115-172200-
...SOUTH CENTRAL AND SOUTHEAST MISSOURI...

CITY           SKY/WX    TMP DP  RH WIND       PRES   REMARKS
CAPE GIRARDEAU CLOUDY    66  57  72 S5        29.96F
FARMINGTON     CLOUDY    59  57  94 SE7       29.98S
POPLAR BLUFF   CLOUDY    62  57  83 NE3       29.95S HAZE
WEST PLAINS    CLOUDY    63  60  90 SW13      29.95S

$$



USA.gov is the U.S. government's official web portal to all federal, state and local government web resources and services.